Location: Heiligenberg
(48.5381°N, 7.3897°E)
Time: 21:48:26
(UTC+00:00)

Lacrosse 5 rocket - Pass Details

Date: 26 May 2022
Orbit: 456 x 629 km, 57.0° (Epoch: 04 July)

Event Time Altitude Azimuth Distance (km) Brightness Sun altitude
Exits shadow 01:22:42 24° 167° (SSE) 1,079 2.4 -15.8°
Maximum altitude 01:24:01 30° 131° (SE) 935 2.3 -15.7°
Drops below altitude 10° 01:27:35 10° 69° (ENE) 1,797 4.7 -15.4°
Sets 01:30:03 0° 59° (ENE) 2,728 6.0 -15.2°
